Back to catalog

STARLINK-37093

AliveCommunicationsVLEO
NORAD 68194·PAYLOAD·🇺🇸 United States

Launched Mar 14, 2026 from Vandenberg Space Force Base

Loading…

Next Passes (next 24 hours)

TLE

FreshSource: CelesTrak SupGP

Epoch: Sep 14, 2026, 14:43 UTC

1 68194C 26050AD  26257.61368056  .00011485  00000+0  33922-3 0  2575
2 68194  53.1569 105.2556 0001397 103.5269 269.2077 15.34394812    13

Track STARLINK-37093 in real time with AllMySat

Download on the App Store